パンスターズ彗星

P/2023 S1 ( PanSTARRS )

English version
Home page
Updated on October 1, 2025

---------------------------------------------------------------------

・ プロフィール

発見日 2023年9月20日
発見光度 20.3等
発見者 Pan-STARRS 2 telescope (Haleakala)

・ 写真集

・ 軌道要素

Epoch 2025 May 5.0 TT = JDT 2460800.5
T 2025 Feb. 24.16858 TT                                 Pike
q   2.6197012            (2000.0)            P               Q
n   0.13077454     Peri.  180.30383     -0.73834001     -0.66573307
a   3.8440343      Node   317.29027     +0.61911142     -0.60555614
e   0.3185021      Incl.    9.15777     +0.26749780     -0.43600600
P   7.54
From 1872 observations 2023 Sept. 15-2025 June 14, mean residual 0".5.

・ 光度変化

        m1 = 5.0 + 5 logΔ + 20.0 log r

---------------------------------------------------------------------

軌道要素はM.P.E.C. 2025-M120に掲載されたものです。
光度グラフはComet for Windowsで作成したものです。

---------------------------------------------------------------------

Copyright(C) Seiichi Yoshida (comet@aerith.net). All rights reserved.